| time (UTC) | temp C | wind direction | speed KPH | gust KPH | rain 1hr cm | rain 24hr cm | rain mn cm | humidity % | barometer mb |
| 20260505063931 | 11 | 72 | 0.0 | 0.0 | 0.03 | 2.03 | 1.27 | 96 | 1007.8 |
| 20260505063430 | 11 | 72 | 0.0 | 0.0 | 0.05 | 2.03 | 1.27 | 96 | 1007.8 |
| 20260505062930 | 11 | 72 | 0.0 | 0.0 | 0.05 | 2.03 | 1.27 | 96 | 1007.9 |
| 20260505062430 | 11 | 72 | 0.0 | 0.0 | 0.05 | 2.03 | 1.27 | 96 | 1008.0 |
| 20260505061930 | 10 | 72 | 0.0 | 0.0 | 0.05 | 2.03 | 1.27 | 96 | 1008.0 |
| 20260505061429 | 10 | 229 | 0.0 | 0.0 | 0.05 | 2.03 | 1.27 | 96 | 1008.1 |
| 20260505060929 | 10 | 229 | 0.0 | 0.0 | 0.05 | 2.03 | 1.27 | 96 | 1008.2 |
| 20260505060429 | 10 | 229 | 0.0 | 0.0 | 0.05 | 2.03 | 1.27 | 96 | 1008.2 |
| 20260505055929 | 10 | 229 | 0.0 | 0.0 | 0.08 | 2.03 | 1.27 | 96 | 1008.2 |
| 20260505055428 | 10 | 229 | 0.0 | 0.0 | 0.10 | 2.03 | 1.27 | 96 | 1008.4 |
| 20260505054928 | 10 | 229 | 0.0 | 0.0 | 0.10 | 2.01 | 1.24 | 96 | 1008.4 |
| 20260505054428 | 10 | 229 | 0.0 | 0.0 | 0.10 | 2.01 | 1.24 | 96 | 1008.4 |
| 20260505053928 | 10 | 229 | 0.0 | 0.0 | 0.13 | 2.01 | 1.24 | 96 | 1008.5 |
| 20260505053427 | 10 | 229 | 0.0 | 0.0 | 0.10 | 1.98 | 1.22 | 96 | 1008.4 |
| 20260505052927 | 10 | 229 | 0.0 | 0.0 | 0.13 | 1.98 | 1.22 | 96 | 1008.4 |
| 20260505052427 | 10 | 229 | 0.0 | 0.0 | 0.13 | 1.98 | 1.22 | 96 | 1008.4 |
| 20260505051926 | 10 | 229 | 0.0 | 0.0 | 0.18 | 1.98 | 1.22 | 96 | 1008.4 |
| 20260505051426 | 10 | 229 | 0.0 | 0.0 | 0.20 | 1.98 | 1.22 | 96 | 1008.5 |
| 20260505050926 | 10 | 229 | 0.0 | 0.0 | 0.25 | 1.98 | 1.22 | 96 | 1008.5 |
| 20260505050426 | 10 | 229 | 0.0 | 0.0 | 0.28 | 1.98 | 1.22 | 95 | 1008.6 |
| 20260505041423 | 10 | 302 | 0.0 | 0.0 | 0.36 | 1.78 | 1.02 | 95 | 1009.0 |
| 20260505040923 | 10 | 302 | 0.0 | 0.0 | 0.30 | 1.73 | 0.97 | 95 | 1009.0 |
| 20260505040423 | 10 | 301 | 0.0 | 0.0 | 0.28 | 1.70 | 0.94 | 95 | 1009.2 |
| 20260505035922 | 10 | 301 | 0.0 | 0.0 | 0.23 | 1.65 | 0.89 | 95 | 1009.1 |
| 20260505035422 | 10 | 301 | 0.0 | 1.6 | 0.23 | 1.63 | 0.86 | 95 | 1009.2 |
| 20260505034922 | 10 | 301 | 0.0 | 1.6 | 0.20 | 1.60 | 0.84 | 95 | 1009.2 |
| 20260505034421 | 10 | 302 | 0.0 | 0.0 | 0.18 | 1.57 | 0.81 | 95 | 1009.4 |
| 20260505033921 | 10 | 301 | 0.0 | 0.0 | 0.15 | 1.52 | 0.76 | 95 | 1009.4 |
| 20260505033421 | 10 | 301 | 0.0 | 0.0 | 0.15 | 1.50 | 0.74 | 95 | 1009.4 |
| 20260505032921 | 10 | 301 | 0.0 | 1.6 | 0.13 | 1.47 | 0.71 | 95 | 1009.4 |
| 20260505032421 | 10 | 301 | 0.0 | 0.0 | 0.18 | 1.47 | 0.71 | 95 | 1009.4 |
| 20260505031920 | 10 | 301 | 0.0 | 0.0 | 0.18 | 1.45 | 0.69 | 95 | 1009.4 |
| 20260505031420 | 10 | 301 | 0.0 | 0.0 | 0.18 | 1.42 | 0.66 | 95 | 1009.5 |
| 20260505030920 | 10 | 301 | 0.0 | 0.0 | 0.23 | 1.42 | 0.66 | 95 | 1009.4 |
| 20260505030419 | 10 | 301 | 0.0 | 0.0 | 0.25 | 1.42 | 0.66 | 95 | 1009.3 |
| 20260505025919 | 10 | 301 | 0.0 | 0.0 | 0.28 | 1.42 | 0.66 | 95 | 1009.3 |
| 20260505025419 | 10 | 301 | 0.0 | 0.0 | 0.28 | 1.40 | 0.64 | 95 | 1009.4 |
| 20260505024918 | 10 | 301 | 0.0 | 0.0 | 0.30 | 1.40 | 0.64 | 95 | 1009.4 |
| 20260505024418 | 10 | 301 | 0.0 | 0.0 | 0.33 | 1.40 | 0.64 | 95 | 1009.4 |
| 20260505023918 | 10 | 301 | 0.0 | 0.0 | 0.33 | 1.37 | 0.61 | 95 | 1009.3 |
| 20260505023418 | 10 | 301 | 0.0 | 0.0 | 0.33 | 1.35 | 0.58 | 95 | 1009.4 |
| 20260505022917 | 10 | 301 | 0.0 | 0.0 | 0.36 | 1.35 | 0.58 | 95 | 1009.5 |
| 20260505022417 | 10 | 301 | 0.0 | 0.0 | 0.33 | 1.30 | 0.53 | 95 | 1009.6 |
| 20260505021917 | 10 | 301 | 0.0 | 0.0 | 0.30 | 1.27 | 0.51 | 95 | 1009.5 |
| 20260505021417 | 10 | 301 | 0.0 | 0.0 | 0.30 | 1.24 | 0.48 | 95 | 1009.5 |
| 20260505020916 | 10 | 301 | 0.0 | 0.0 | 0.30 | 1.19 | 0.43 | 95 | 1009.5 |
| 20260505020416 | 10 | 301 | 0.0 | 0.0 | 0.30 | 1.17 | 0.41 | 95 | 1009.6 |
| 20260505015916 | 10 | 301 | 0.0 | 0.0 | 0.30 | 1.14 | 0.38 | 95 | 1009.6 |
| 20260505015416 | 10 | 301 | 0.0 | 0.0 | 0.30 | 1.12 | 0.36 | 95 | 1009.6 |
| 20260505014915 | 10 | 301 | 0.0 | 0.0 | 0.28 | 1.09 | 0.33 | 95 | 1009.7 |
| 20260505014415 | 10 | 301 | 0.0 | 0.0 | 0.28 | 1.07 | 0.30 | 95 | 1009.8 |
| 20260505013915 | 10 | 301 | 0.0 | 0.0 | 0.25 | 1.04 | 0.28 | 95 | 1009.8 |
| 20260505013414 | 10 | 301 | 0.0 | 0.0 | 0.23 | 1.02 | 0.25 | 95 | 1009.8 |
| 20260505012914 | 10 | 301 | 0.0 | 0.0 | 0.23 | 0.99 | 0.23 | 95 | 1009.9 |
| 20260505012414 | 10 | 301 | 0.0 | 0.0 | 0.20 | 0.97 | 0.20 | 95 | 1009.9 |
| 20260505011914 | 10 | 301 | 0.0 | 0.0 | 0.20 | 0.97 | 0.20 | 95 | 1010.0 |
| 20260505011413 | 10 | 301 | 0.0 | 0.0 | 0.18 | 0.94 | 0.18 | 95 | 1010.1 |
| 20260505010913 | 10 | 301 | 0.0 | 0.0 | 0.13 | 0.89 | 0.13 | 95 | 1010.3 |
| 20260505010413 | 10 | 301 | 0.0 | 0.0 | 0.10 | 0.86 | 0.10 | 95 | 1010.3 |
| 20260505005913 | 10 | 301 | 0.0 | 0.0 | 0.08 | 0.84 | 0.08 | 95 | 1010.4 |
| 20260505005412 | 10 | 301 | 0.0 | 0.0 | 0.05 | 0.81 | 0.05 | 95 | 1010.3 |
| 20260505004912 | 10 | 302 | 0.0 | 0.0 | 0.05 | 0.81 | 0.05 | 95 | 1010.3 |
| 20260505004412 | 10 | 301 | 0.0 | 0.0 | 0.03 | 0.79 | 0.03 | 95 | 1010.3 |
| 20260505003911 | 10 | 301 | 0.0 | 0.0 | 0.03 | 0.79 | 0.03 | 95 | 1010.3 |
| 20260505003411 | 10 | 301 | 0.0 | 1.6 | 0.03 | 0.79 | 0.03 | 95 | 1010.3 |
| 20260505002911 | 10 | 301 | 0.0 | 1.6 | 0.00 | 0.76 | 0.00 | 95 | 1010.3 |
| 20260505002411 | 10 | 301 | 0.0 | 0.0 | 0.00 | 0.76 | 0.00 | 95 | 1010.2 |
| 20260505001910 | 10 | 301 | 0.0 | 0.0 | 0.00 | 0.76 | 0.00 | 95 | 1010.2 |
| 20260505001410 | 10 | 301 | 0.0 | 0.0 | 0.00 | 0.76 | 0.00 | 95 | 1010.2 |
| 20260505000910 | 10 | 301 | 0.0 | 0.0 | 0.00 | 0.76 | 0.00 | 95 | 1010.3 |
| 20260505000410 | 10 | 301 | 0.0 | 0.0 | 0.00 | 0.76 | 0.00 | 95 | 1010.2 |
| 20260504235909 | 10 | 302 | 0.0 | 0.0 | 0.00 | 0.76 | 0.00 | 95 | 1010.3 |
| 20260504235409 | 10 | 301 | 0.0 | 0.0 | 0.00 | 0.76 | 0.00 | 95 | 1010.3 |
| 20260504234909 | 10 | 301 | 0.0 | 0.0 | 0.00 | 0.76 | 0.00 | 95 | 1010.2 |
| 20260504234409 | 10 | 301 | 0.0 | 0.0 | 0.00 | 0.76 | 0.00 | 95 | 1010.1 |
| 20260504233908 | 10 | 301 | 0.0 | 0.0 | 0.00 | 0.76 | 0.00 | 95 | 1010.1 |
| 20260504233408 | 10 | 302 | 0.0 | 0.0 | 0.00 | 0.76 | 0.00 | 95 | 1010.0 |
| 20260504232908 | 10 | 301 | 0.0 | 0.0 | 0.00 | 0.76 | 0.00 | 95 | 1010.2 |
| 20260504232407 | 10 | 301 | 0.0 | 0.0 | 0.00 | 0.76 | 0.00 | 95 | 1010.2 |
| 20260504231907 | 10 | 301 | 0.0 | 0.0 | 0.00 | 0.76 | 0.00 | 95 | 1010.2 |
| 20260504231407 | 10 | 301 | 0.0 | 0.0 | 0.00 | 0.76 | 0.00 | 95 | 1010.3 |
| 20260504230907 | 10 | 301 | 0.0 | 0.0 | 0.00 | 0.76 | 0.00 | 95 | 1010.3 |
| 20260504230407 | 10 | 302 | 0.0 | 0.0 | 0.00 | 0.76 | 0.00 | 95 | 1010.3 |
| 20260504225906 | 10 | 302 | 0.0 | 0.0 | 0.00 | 0.76 | 0.00 | 95 | 1010.3 |
| 20260504225406 | 10 | 301 | 0.0 | 0.0 | 0.00 | 0.76 | 0.00 | 95 | 1010.3 |
| 20260504224906 | 10 | 301 | 0.0 | 0.0 | 0.00 | 0.76 | 0.00 | 95 | 1010.4 |
| 20260504224405 | 10 | 301 | 0.0 | 0.0 | 0.00 | 0.76 | 0.00 | 95 | 1010.4 |
| 20260504223905 | 10 | 301 | 0.0 | 0.0 | 0.00 | 0.76 | 0.00 | 95 | 1010.4 |
| 20260504223405 | 10 | 301 | 0.0 | 0.0 | 0.00 | 0.76 | 0.00 | 95 | 1010.4 |
| 20260504222905 | 10 | 301 | 0.0 | 0.0 | 0.00 | 0.76 | 0.00 | 95 | 1010.4 |
| 20260504222404 | 10 | 301 | 0.0 | 0.0 | 0.00 | 0.76 | 0.00 | 95 | 1010.4 |
| 20260504221904 | 10 | 301 | 0.0 | 0.0 | 0.00 | 0.76 | 0.00 | 95 | 1010.5 |
| 20260504221404 | 10 | 301 | 0.0 | 0.0 | 0.00 | 0.76 | 0.00 | 95 | 1010.5 |
| 20260504220903 | 10 | 301 | 0.0 | 0.0 | 0.00 | 0.76 | 0.00 | 95 | 1010.5 |
| 20260504220403 | 10 | 301 | 0.0 | 0.0 | 0.00 | 0.76 | 0.00 | 95 | 1010.6 |
| 20260504215903 | 10 | 301 | 0.0 | 0.0 | 0.00 | 0.76 | 0.76 | 95 | 1010.5 |
| 20260504215403 | 10 | 302 | 0.0 | 0.0 | 0.00 | 0.76 | 0.76 | 95 | 1010.6 |
| 20260504214903 | 10 | 301 | 0.0 | 0.0 | 0.00 | 0.76 | 0.76 | 95 | 1010.5 |
| 20260504214402 | 10 | 301 | 0.0 | 0.0 | 0.00 | 0.76 | 0.76 | 95 | 1010.6 |
| 20260504213902 | 10 | 301 | 0.0 | 0.0 | 0.00 | 0.76 | 0.76 | 95 | 1010.8 |
| 20260504213402 | 10 | 302 | 0.0 | 0.0 | 0.00 | 0.76 | 0.76 | 95 | 1010.9 |
| 20260504212901 | 10 | 301 | 0.0 | 0.0 | 0.00 | 0.76 | 0.76 | 95 | 1010.9 |
| 20260504212401 | 10 | 301 | 0.0 | 0.0 | 0.00 | 0.76 | 0.76 | 95 | 1011.0 |
| 20260504211901 | 10 | 301 | 0.0 | 0.0 | 0.00 | 0.76 | 0.76 | 95 | 1010.9 |
| 20260504211401 | 10 | 301 | 0.0 | 0.0 | 0.00 | 0.76 | 0.76 | 95 | 1011.0 |
| 20260504210900 | 10 | 301 | 0.0 | 0.0 | 0.00 | 0.76 | 0.76 | 95 | 1010.9 |
| 20260504210400 | 10 | 301 | 0.0 | 0.0 | 0.00 | 0.76 | 0.76 | 95 | 1010.9 |
| 20260504205900 | 10 | 301 | 0.0 | 0.0 | 0.00 | 0.76 | 0.76 | 95 | 1010.9 |
| 20260504205359 | 10 | 301 | 0.0 | 0.0 | 0.00 | 0.76 | 0.76 | 95 | 1011.0 |
| 20260504204859 | 10 | 301 | 0.0 | 0.0 | 0.00 | 0.76 | 0.76 | 94 | 1011.1 |
| 20260504204359 | 10 | 301 | 0.0 | 0.0 | 0.00 | 0.76 | 0.76 | 94 | 1011.0 |
| 20260504203859 | 10 | 302 | 0.0 | 0.0 | 0.00 | 0.76 | 0.76 | 94 | 1010.9 |
| 20260504203358 | 10 | 301 | 0.0 | 0.0 | 0.00 | 0.76 | 0.76 | 94 | 1011.0 |
| 20260504202858 | 10 | 301 | 0.0 | 0.0 | 0.00 | 0.76 | 0.76 | 94 | 1011.1 |
| 20260504202358 | 10 | 301 | 0.0 | 0.0 | 0.00 | 0.76 | 0.76 | 94 | 1011.1 |
| 20260504201858 | 10 | 302 | 0.0 | 0.0 | 0.00 | 0.76 | 0.76 | 94 | 1011.2 |
| 20260504201357 | 10 | 301 | 0.0 | 0.0 | 0.00 | 0.76 | 0.76 | 94 | 1011.3 |
| 20260504200857 | 10 | 301 | 0.0 | 0.0 | 0.00 | 0.76 | 0.76 | 94 | 1011.4 |
| 20260504200357 | 10 | 301 | 0.0 | 0.0 | 0.00 | 0.76 | 0.76 | 94 | 1011.4 |
| 20260504195856 | 11 | 301 | 0.0 | 0.0 | 0.00 | 0.76 | 0.76 | 94 | 1011.5 |
| 20260504195356 | 11 | 301 | 0.0 | 0.0 | 0.03 | 0.76 | 0.76 | 94 | 1011.3 |
| 20260504194856 | 11 | 301 | 0.0 | 0.0 | 0.05 | 0.76 | 0.76 | 94 | 1011.4 |
| 20260504194356 | 11 | 301 | 0.0 | 0.0 | 0.05 | 0.76 | 0.76 | 94 | 1011.4 |
| 20260504193855 | 11 | 301 | 0.0 | 0.0 | 0.05 | 0.76 | 0.76 | 94 | 1011.4 |
| 20260504193355 | 11 | 301 | 0.0 | 0.0 | 0.05 | 0.76 | 0.76 | 94 | 1011.4 |
| 20260504192855 | 11 | 301 | 0.0 | 0.0 | 0.05 | 0.76 | 0.76 | 94 | 1011.5 |
| 20260504192355 | 11 | 301 | 0.0 | 0.0 | 0.05 | 0.76 | 0.76 | 94 | 1011.6 |
| 20260504191854 | 11 | 301 | 0.0 | 0.0 | 0.05 | 0.76 | 0.76 | 94 | 1011.5 |
| 20260504191354 | 11 | 301 | 0.0 | 0.0 | 0.05 | 0.76 | 0.76 | 93 | 1011.4 |
| 20260504190854 | 11 | 301 | 0.0 | 0.0 | 0.05 | 0.76 | 0.76 | 93 | 1011.6 |
| 20260504190354 | 11 | 302 | 0.0 | 0.0 | 0.05 | 0.76 | 0.76 | 93 | 1011.7 |
| 20260504185853 | 11 | 301 | 0.0 | 0.0 | 0.05 | 0.76 | 0.76 | 93 | 1011.6 |
| 20260504185353 | 11 | 301 | 0.0 | 0.0 | 0.03 | 0.74 | 0.74 | 93 | 1011.7 |
| 20260504184853 | 11 | 301 | 0.0 | 0.0 | 0.00 | 0.71 | 0.71 | 93 | 1011.7 |
| 20260504184353 | 11 | 301 | 0.0 | 0.0 | 0.00 | 0.71 | 0.71 | 93 | 1011.7 |
| 20260504183852 | 11 | 301 | 0.0 | 0.0 | 0.00 | 0.71 | 0.71 | 93 | 1011.7 |
| 20260504183352 | 11 | 301 | 0.0 | 0.0 | 0.00 | 0.71 | 0.71 | 93 | 1011.7 |
| 20260504182852 | 11 | 301 | 0.0 | 0.0 | 0.00 | 0.71 | 0.71 | 93 | 1011.7 |
| 20260504182351 | 11 | 301 | 0.0 | 0.0 | 0.00 | 0.71 | 0.71 | 93 | 1011.8 |
| 20260504181851 | 11 | 302 | 0.0 | 0.0 | 0.00 | 0.71 | 0.71 | 93 | 1011.8 |
| 20260504181351 | 11 | 301 | 0.0 | 0.0 | 0.00 | 0.71 | 0.71 | 92 | 1011.8 |
| 20260504180851 | 11 | 301 | 0.0 | 0.0 | 0.00 | 0.71 | 0.71 | 92 | 1012.0 |
| 20260504180350 | 11 | 301 | 0.0 | 0.0 | 0.00 | 0.71 | 0.71 | 92 | 1012.0 |
| 20260504175850 | 11 | 301 | 0.0 | 1.6 | 0.00 | 0.71 | 0.71 | 92 | 1012.1 |
| 20260504175350 | 11 | 301 | 0.0 | 1.6 | 0.00 | 0.71 | 0.71 | 92 | 1012.0 |
| 20260504174850 | 11 | 301 | 0.0 | 0.0 | 0.00 | 0.71 | 0.71 | 92 | 1012.1 |
| 20260504174349 | 11 | 301 | 0.0 | 0.0 | 0.00 | 0.71 | 0.71 | 92 | 1012.1 |
| 20260504173849 | 11 | 301 | 0.0 | 0.0 | 0.00 | 0.71 | 0.71 | 92 | 1012.2 |
| 20260504173349 | 11 | 301 | 0.0 | 1.6 | 0.00 | 0.71 | 0.71 | 92 | 1012.2 |
| 20260504172849 | 11 | 295 | 0.0 | 1.6 | 0.00 | 0.71 | 0.71 | 92 | 1012.2 |
| 20260504172348 | 11 | 295 | 0.0 | 1.6 | 0.00 | 0.71 | 0.71 | 92 | 1012.2 |
| 20260504171848 | 11 | 295 | 0.0 | 1.6 | 0.00 | 0.71 | 0.71 | 92 | 1012.3 |
| 20260504171348 | 11 | 295 | 0.0 | 1.6 | 0.03 | 0.71 | 0.71 | 92 | 1012.4 |
| 20260504170847 | 11 | 286 | 0.0 | 1.6 | 0.03 | 0.71 | 0.71 | 92 | 1012.4 |
| 20260504170347 | 11 | 286 | 0.0 | 1.6 | 0.03 | 0.71 | 0.71 | 92 | 1012.4 |
| 20260504160344 | 11 | 131 | 0.0 | 1.6 | 0.05 | 0.69 | 0.69 | 91 | 1012.8 |
| 20260504150841 | 11 | 323 | 0.0 | 0.0 | 0.10 | 0.64 | 0.64 | 90 | 1013.1 |
| 20260504150341 | 11 | 323 | 0.0 | 0.0 | 0.13 | 0.64 | 0.64 | 91 | 1013.1 |
| 20260504140838 | 11 | 301 | 0.0 | 3.2 | 0.23 | 0.53 | 0.53 | 89 | 1013.6 |
| 20260504140338 | 11 | 299 | 0.0 | 1.6 | 0.20 | 0.51 | 0.51 | 89 | 1013.7 |
| 20260504130334 | 12 | 357 | 1.6 | 4.8 | 0.18 | 0.30 | 0.30 | 90 | 1013.9 |
| 20260504110328 | 13 | 316 | 1.6 | 6.4 | 0.05 | 0.05 | 0.05 | 84 | 1013.3 |
| 20260504100325 | 15 | 315 | 0.0 | 6.4 | 0.00 | 0.00 | 0.00 | 74 | 1013.0 |
| 20260504081819 | 14 | 123 | 0.0 | 4.8 | 0.00 | 0.00 | 0.00 | 80 | 1013.0 |
| 20260504081319 | 13 | 118 | 0.0 | 4.8 | 0.00 | 0.00 | 0.00 | 81 | 1012.8 |
| 20260504080819 | 13 | 136 | 0.0 | 1.6 | 0.00 | 0.00 | 0.00 | 80 | 1012.5 |
| 20260504080318 | 13 | 137 | 0.0 | 3.2 | 0.00 | 0.00 | 0.00 | 80 | 1012.4 |
| 20260504070315 | 13 | 147 | 0.0 | 0.0 | 0.00 | 0.00 | 0.00 | 78 | 1011.9 |